Sarasota, FL

9:59 PM EDT on October 17, 2019 (GMT -0400)
Sarasota-bradenton

Weather History for KSRQ - July, 2019

Change the Weather History Date:

Monday, July 22, 2019

  Actual Average Record
Temperature  
Mean Temperature 81 °F -  
Max Temperature 89 °F - 98 °F (1984)
Min Temperature 73 °F - 64 °F (1976)
Cooling Degree Days 16    
Month to date cooling degree days 400  
Year to date cooling degree days 2116  
Since 1 June cooling degree days 959  
Growing Degree Days 30 (Base 50)    
Moisture  
Dew Point 73 °F    
Average Humidity 83    
Maximum Humidity 94    
Minimum Humidity 63    
Precipitation  
Precipitation 1.15 in - 3.09 in (2001)
Month to date precipitation 11.06  
Year to date precipitation 25.67  
Sea Level Pressure  
Sea Level Pressure 30.00 in    
Wind  
Wind Speed 6 mph (SE)    
Max Wind Speed 28 mph    
Max Gust Speed 31 mph    
Visibility 9 miles    
Events Rain , Thunderstorm    
T = Trace of Precipitation, MM = Missing Value Source: NWS Daily Summary

Daily Weather History Graph

Daily Weather History Graph

Search for Another Location

Airport or City:

Astronomy

Jul. 22, 2019 Rise Set
Actual Time 6:48 AM EDT 8:24 PM EDT
Civil Twilight 6:22 AM EDT 8:50 PM EDT
Nautical Twilight 5:51 AM EDT 9:21 PM EDT
Astronomical Twilight 5:19 AM EDT 9:53 PM EDT
Moon No Moon Rise 11:40 AM EDT (7/22)
Length of Visible Light 14h 27m
Length of Day
13h 36m
Waning Gibbous, 72% of the Moon is Illuminated
Jul 22
Waning Gibbous
Jul 24
Last Quarter
Jul 31
New
Aug 7
First Quarter
Aug 15
Full

Hourly Weather History & Observations

Time (EDT) Temp. Heat Index Dew Point Humidity Pressure Visibility Wind Dir Wind Speed Gust Speed Precip Events Conditions
12:53 AM 73.9 °F - 72.0 °F 93% 30.04 in 10.0 mi Calm Calm - N/A   Clear
1:53 AM 73.9 °F - 72.0 °F 93% 30.02 in 10.0 mi ENE 3.5 mph - N/A   Clear
2:53 AM 73.9 °F - 72.0 °F 93% 30.01 in 10.0 mi East 4.6 mph - N/A   Clear
3:53 AM 73.9 °F - 71.1 °F 91% 30.00 in 10.0 mi East 4.6 mph - N/A   Clear
4:53 AM 73.0 °F - 71.1 °F 93% 30.00 in 10.0 mi East 4.6 mph - N/A   Clear
5:53 AM 73.0 °F - 71.1 °F 93% 29.99 in 10.0 mi East 4.6 mph - N/A   Clear
6:53 AM 73.0 °F - 72.0 °F 96% 29.99 in 10.0 mi East 5.8 mph - N/A   Clear
7:53 AM 75.0 °F - 73.0 °F 94% 30.00 in 10.0 mi ESE 6.9 mph - N/A   Clear
8:53 AM 79.0 °F - 73.0 °F 82% 30.02 in 10.0 mi SE 6.9 mph - N/A   Clear
9:53 AM 82.0 °F 87.4 °F 73.0 °F 74% 30.03 in 10.0 mi ESE 6.9 mph - N/A   Clear
10:53 AM 84.9 °F 92.1 °F 73.9 °F 69% 30.04 in 10.0 mi SE 5.8 mph - N/A   Clear
11:53 AM 88.0 °F 96.5 °F 73.9 °F 63% 30.04 in 10.0 mi SE 6.9 mph - N/A   Scattered Clouds
12:53 PM 86.0 °F 95.1 °F 75.0 °F 70% 30.02 in 10.0 mi SW 10.4 mph - N/A   Mostly Cloudy
1:11 PM 78.1 °F - 73.9 °F 87% 30.04 in 1.0 mi SSW 19.6 mph 31.1 mph 0.16 in Rain Heavy Rain
1:24 PM 75.0 °F - 71.1 °F 87% 30.02 in 1.0 mi SW 8.1 mph - 0.51 in Rain , Thunderstorm Heavy Thunderstorms and Rain
1:53 PM 75.9 °F - 70.0 °F 82% 30.03 in 7.0 mi SSW 6.9 mph - 0.75 in Rain Rain
2:53 PM 79.0 °F - 75.0 °F 88% 29.99 in 9.0 mi NW 3.5 mph - 0.10 in Rain Rain
3:53 PM 84.9 °F 94.1 °F 75.9 °F 74% 29.98 in 10.0 mi WSW 10.4 mph - 0.00 in   Clear
4:53 PM 86.0 °F 93.8 °F 73.9 °F 67% 29.96 in 10.0 mi West 9.2 mph - N/A   Clear
5:53 PM 86.0 °F 93.8 °F 73.9 °F 67% 29.95 in 10.0 mi West 9.2 mph - N/A   Clear
6:53 PM 84.9 °F 92.1 °F 73.9 °F 69% 29.96 in 10.0 mi West 5.8 mph - N/A   Clear
7:53 PM 84.9 °F 91.4 °F 73.0 °F 67% 29.97 in 10.0 mi Calm Calm - N/A   Clear
8:27 PM 79.0 °F - 72.0 °F 79% 30.00 in 10.0 mi ESE 17.3 mph 25.3 mph 0.00 in Rain , Thunderstorm Thunderstorms and Rain
8:35 PM 77.0 °F - 73.0 °F 88% 30.00 in 8.0 mi SE 18.4 mph 25.3 mph 0.07 in Rain , Thunderstorm Thunderstorms and Rain
8:48 PM 75.2 °F - 73.4 °F 94% 30.01 in 2.5 mi ESE 16.1 mph - 0.22 in Rain , Thunderstorm Thunderstorms and Rain
8:53 PM 75.0 °F - 73.9 °F 96% 30.01 in 4.0 mi ESE 16.1 mph - 0.24 in Rain , Thunderstorm Thunderstorms and Rain
9:53 PM 77.0 °F - 72.0 °F 84% 29.99 in 10.0 mi East 6.9 mph - 0.06 in Rain , Thunderstorm Thunderstorms and Rain
10:53 PM 75.0 °F - 73.0 °F 94% 29.99 in 10.0 mi East 4.6 mph - 0.00 in Rain , Thunderstorm Thunderstorms and Rain
11:53 PM 75.9 °F - 73.0 °F 91% 29.98 in 10.0 mi Calm Calm - 0.00 in   Clear